Location: Unspecified
(0.0000°N, 0.0000°E)
Time: 10:31:34
(UTC+00:00)

NNS O-29 - Pass Details

Date: 10 August 2024
Orbit: 1013 x 1173 km, 90.4° (Epoch: 07 September)

Event Time Altitude Azimuth Distance (km) Brightness Sun altitude
Rises 19:28:46 0° 343° (NNW) 3,800 10.6 -20.1°
Reaches altitude 10° 19:31:40 10° 332° (NNW) 2,829 10.0 -20.8°
Maximum altitude 19:37:01 28° 275° (W) 1,795 9.1 -22.1°
Drops below altitude 10° 19:42:20 10° 217° (SW) 2,795 9.6 -23.4°
Sets 19:45:13 0° 206° (SSW) 3,746 10.2 -24.1°
